Location: Pic du Midi - T1M
(42.9366°N, 0.1426°E)
Time: 01:35:56
(UTC+01:00)

DX 1 - Pass Details

Date: 26 September 2021
Orbit: 618 x 631 km, 98.4° (Epoch: 15 October)

Event Time Altitude Azimuth Distance (km) Brightness Sun altitude
Rises 19:45:17 0° 34° (NNE) 2,896 ? -11.0°
Reaches altitude 10° 19:48:31 10° 60° (ENE) 1,985 ? -11.6°
Enters shadow 19:48:41 11° 62° (ENE) 1,952 ? -11.7°
